RVA212 KSLC-KFAT

Flight info

Callsign RVA212
Flight time 1h 27m
Altitude 40000
Route DEZRT2 MVA FRA NTELL
Aircraft LJ35/M-SGHRWXY/SB1

Departure

Time 2026-04-22 13:03
Airport Salt Lake City International Airport (KSLC)

Arrival

Time 2026-04-22 14:30
Airport Fresno Yosemite International Airport (KFAT)
Time Latitude Longitude Altitude Speed Heading
2026-04-22 12:43 40.78078 -111.95850 4230 ft 0 kts 179°
2026-04-22 12:51 40.78075 -111.95850 4230 ft 1 kts 180°
2026-04-22 12:52 40.78067 -111.95854 4230 ft 2 kts 224°
2026-04-22 12:52 40.78070 -111.95882 4230 ft 5 kts 315°
2026-04-22 12:52 40.78101 -111.95914 4230 ft 7 kts 341°
2026-04-22 12:52 40.78146 -111.95907 4230 ft 4 kts 11°
2026-04-22 12:53 40.78182 -111.95903 4230 ft 6 kts
2026-04-22 12:53 40.78227 -111.95910 4230 ft 3 kts 317°
2026-04-22 12:53 40.78234 -111.95948 4230 ft 6 kts 270°
2026-04-22 12:53 40.78201 -111.95994 4230 ft 9 kts 184°
2026-04-22 12:54 40.78128 -111.95994 4230 ft 11 kts 180°
2026-04-22 12:54 40.78054 -111.95994 4230 ft 11 kts 180°
2026-04-22 12:54 40.77981 -111.95994 4230 ft 11 kts 180°
2026-04-22 12:54 40.77907 -111.95994 4230 ft 10 kts 180°
2026-04-22 12:55 40.77843 -111.96028 4230 ft 10 kts 216°
2026-04-22 12:55 40.77778 -111.96062 4230 ft 10 kts 182°
2026-04-22 12:55 40.77709 -111.96062 4230 ft 10 kts 180°
2026-04-22 12:55 40.77640 -111.96062 4230 ft 10 kts 179°
2026-04-22 12:56 40.77571 -111.96062 4230 ft 10 kts 179°
2026-04-22 12:56 40.77502 -111.96062 4230 ft 10 kts 179°
2026-04-22 12:56 40.77434 -111.96061 4230 ft 10 kts 180°
2026-04-22 12:56 40.77365 -111.96061 4230 ft 10 kts 180°
2026-04-22 12:57 40.77297 -111.96061 4230 ft 10 kts 186°
2026-04-22 12:57 40.77263 -111.96123 4230 ft 9 kts 261°
2026-04-22 12:57 40.77266 -111.96204 4230 ft 9 kts 276°
2026-04-22 12:57 40.77267 -111.96285 4230 ft 9 kts 270°
2026-04-22 12:58 40.77267 -111.96363 4230 ft 9 kts 270°
2026-04-22 12:58 40.77268 -111.96440 4230 ft 8 kts 275°
2026-04-22 12:58 40.77281 -111.96514 4230 ft 8 kts 287°
2026-04-22 12:58 40.77300 -111.96591 4230 ft 9 kts 289°
2026-04-22 12:59 40.77320 -111.96675 4230 ft 10 kts 287°
2026-04-22 12:59 40.77342 -111.96764 4230 ft 11 kts 287°
2026-04-22 12:59 40.77365 -111.96859 4230 ft 11 kts 288°
2026-04-22 12:59 40.77390 -111.96959 4230 ft 12 kts 288°
2026-04-22 13:00 40.77416 -111.97064 4230 ft 12 kts 288°
2026-04-22 13:00 40.77447 -111.97172 4230 ft 13 kts 298°
2026-04-22 13:00 40.77467 -111.97219 4230 ft 0 kts 298°
2026-04-22 13:01 40.77468 -111.97223 4230 ft 2 kts 298°
2026-04-22 13:01 40.77479 -111.97248 4230 ft 5 kts 298°
2026-04-22 13:01 40.77502 -111.97301 4230 ft 8 kts 320°
2026-04-22 13:02 40.77578 -111.97320 4230 ft 17 kts 357°
2026-04-22 13:02 40.77892 -111.97354 4230 ft 77 kts 354°
2026-04-22 13:02 40.78669 -111.97447 4230 ft 145 kts 355°
2026-04-22 13:02 40.79834 -111.97566 4387 ft 187 kts 355°
2026-04-22 13:03 40.81248 -111.97711 4781 ft 219 kts 354°
2026-04-22 13:03 40.82761 -111.98307 5271 ft 242 kts 329°
2026-04-22 13:03 40.83973 -111.99956 5762 ft 255 kts 301°
2026-04-22 13:03 40.84455 -112.02213 6242 ft 255 kts 272°
2026-04-22 13:04 40.84304 -112.04438 6705 ft 230 kts 262°
2026-04-22 13:04 40.84095 -112.06494 7167 ft 225 kts 265°
2026-04-22 13:04 40.84009 -112.08578 7653 ft 228 kts 273°
2026-04-22 13:04 40.84055 -112.10639 8149 ft 220 kts 273°
2026-04-22 13:05 40.84181 -112.12637 8621 ft 220 kts 275°
2026-04-22 13:05 40.84350 -112.14668 9102 ft 224 kts 276°
2026-04-22 13:05 40.84543 -112.16723 9581 ft 227 kts 276°
2026-04-22 13:05 40.84746 -112.18799 10058 ft 229 kts 277°
2026-04-22 13:06 40.84953 -112.20863 10516 ft 231 kts 269°
2026-04-22 13:06 40.85161 -112.22977 10993 ft 233 kts 269°
2026-04-22 13:06 40.85370 -112.25103 11470 ft 233 kts 269°
2026-04-22 13:06 40.85579 -112.27221 11944 ft 233 kts 269°
2026-04-22 13:07 40.85788 -112.29340 12419 ft 232 kts 269°
2026-04-22 13:07 40.85995 -112.31440 12893 ft 230 kts 268°
2026-04-22 13:07 40.86200 -112.33525 13365 ft 228 kts 268°
2026-04-22 13:07 40.86403 -112.35590 13839 ft 225 kts 268°
2026-04-22 13:08 40.86603 -112.37626 14310 ft 222 kts 268°
2026-04-22 13:08 40.86797 -112.39636 14779 ft 219 kts 268°
2026-04-22 13:08 40.86988 -112.41598 15232 ft 216 kts 267°
2026-04-22 13:08 40.87126 -112.43563 15686 ft 216 kts 262°
2026-04-22 13:09 40.87051 -112.45563 16178 ft 222 kts 256°
2026-04-22 13:09 40.86904 -112.47652 16670 ft 235 kts 257°
2026-04-22 13:09 40.86755 -112.49852 17158 ft 246 kts 257°
2026-04-22 13:09 40.86603 -112.52145 17643 ft 255 kts 257°
2026-04-22 13:10 40.86447 -112.54517 18127 ft 263 kts 257°
2026-04-22 13:10 40.86287 -112.56960 18609 ft 270 kts 257°
2026-04-22 13:10 40.86118 -112.59455 19087 ft 275 kts 257°
2026-04-22 13:10 40.85919 -112.61987 19566 ft 279 kts 257°
2026-04-22 13:11 40.85708 -112.64553 20044 ft 283 kts 257°
2026-04-22 13:11 40.85493 -112.67150 20524 ft 285 kts 257°
2026-04-22 13:11 40.85279 -112.69760 21001 ft 287 kts 257°
2026-04-22 13:11 40.85066 -112.72384 21478 ft 287 kts 257°
2026-04-22 13:12 40.84851 -112.75014 21954 ft 287 kts 257°
2026-04-22 13:12 40.84637 -112.77634 22429 ft 287 kts 257°
2026-04-22 13:12 40.84423 -112.80244 22904 ft 286 kts 257°
2026-04-22 13:12 40.84249 -112.82858 23340 ft 287 kts 259°
2026-04-22 13:13 40.84177 -112.85497 23784 ft 288 kts 262°
2026-04-22 13:13 40.84185 -112.88134 24232 ft 286 kts 263°
2026-04-22 13:13 40.84197 -112.90757 24681 ft 284 kts 262°
2026-04-22 13:13 40.84208 -112.93323 25124 ft 282 kts 262°
2026-04-22 13:14 40.84218 -112.95902 25565 ft 279 kts 262°
2026-04-22 13:14 40.84226 -112.98455 25951 ft 278 kts 262°
2026-04-22 13:14 40.84233 -113.00997 26348 ft 276 kts 262°
2026-04-22 13:14 40.84239 -113.03532 26659 ft 277 kts 262°
2026-04-22 13:15 40.84244 -113.06075 26979 ft 277 kts 262°
2026-04-22 13:15 40.84250 -113.08611 27302 ft 276 kts 262°
2026-04-22 13:15 40.84255 -113.11144 27627 ft 275 kts 261°
2026-04-22 13:15 40.84260 -113.13666 27951 ft 274 kts 261°
2026-04-22 13:16 40.84265 -113.16176 28276 ft 272 kts 261°
2026-04-22 13:16 40.84266 -113.18700 28602 ft 279 kts 261°
2026-04-22 13:16 40.84262 -113.21313 28934 ft 290 kts 261°
2026-04-22 13:16 40.84260 -113.24023 29267 ft 299 kts 262°
2026-04-22 13:17 40.84260 -113.26813 29599 ft 308 kts 262°
2026-04-22 13:17 40.84261 -113.29641 29925 ft 316 kts 262°
2026-04-22 13:17 40.84263 -113.32589 30256 ft 323 kts 262°
2026-04-22 13:17 40.84264 -113.35584 30585 ft 330 kts 262°
2026-04-22 13:18 40.84264 -113.38643 30914 ft 335 kts 262°
2026-04-22 13:18 40.84264 -113.41739 31299 ft 339 kts 262°
2026-04-22 13:18 40.84263 -113.44868 31678 ft 341 kts 263°
2026-04-22 13:18 40.84262 -113.48010 32055 ft 344 kts 263°
2026-04-22 13:19 40.84258 -113.51140 32426 ft 346 kts 263°
2026-04-22 13:19 40.84255 -113.54314 32802 ft 347 kts 263°
2026-04-22 13:19 40.84249 -113.57544 33182 ft 348 kts 263°
2026-04-22 13:19 40.84242 -113.60742 33558 ft 348 kts 263°
2026-04-22 13:20 40.84235 -113.63913 33930 ft 348 kts 263°
2026-04-22 13:20 40.84227 -113.67103 34304 ft 348 kts 263°
2026-04-22 13:20 40.84217 -113.70300 34679 ft 347 kts 263°
2026-04-22 13:20 40.84207 -113.73486 34983 ft 348 kts 263°
2026-04-22 13:21 40.84194 -113.76702 35226 ft 351 kts 263°
2026-04-22 13:21 40.84180 -113.79930 35475 ft 353 kts 263°
2026-04-22 13:21 40.84166 -113.83181 35726 ft 355 kts 263°
2026-04-22 13:21 40.84151 -113.86449 35977 ft 356 kts 263°
2026-04-22 13:22 40.84133 -113.89728 36227 ft 358 kts 263°
2026-04-22 13:22 40.84113 -113.93019 36478 ft 358 kts 263°
2026-04-22 13:22 40.84093 -113.96310 36728 ft 359 kts 263°
2026-04-22 13:22 40.84072 -113.99619 36979 ft 360 kts 263°
2026-04-22 13:23 40.84050 -114.02920 37228 ft 360 kts 263°
2026-04-22 13:23 40.84028 -114.06185 37474 ft 360 kts 263°
2026-04-22 13:23 40.84004 -114.09500 37724 ft 360 kts 263°
2026-04-22 13:23 40.83980 -114.12805 37974 ft 359 kts 263°
2026-04-22 13:24 40.83954 -114.16102 38223 ft 359 kts 263°
2026-04-22 13:24 40.83927 -114.19401 38473 ft 359 kts 263°
2026-04-22 13:24 40.83899 -114.22722 38724 ft 361 kts 264°
2026-04-22 13:24 40.83869 -114.26040 38974 ft 363 kts 264°
2026-04-22 13:25 40.83839 -114.29378 39225 ft 364 kts 264°
2026-04-22 13:25 40.83808 -114.32728 39476 ft 365 kts 264°
2026-04-22 13:25 40.83776 -114.36092 39678 ft 368 kts 264°
2026-04-22 13:25 40.83742 -114.39446 39786 ft 372 kts 264°
2026-04-22 13:26 40.83706 -114.42892 39827 ft 378 kts 264°
2026-04-22 13:26 40.83629 -114.49966 39840 ft 391 kts 264°
2026-04-22 13:27 40.83547 -114.57254 39842 ft 402 kts 264°
2026-04-22 13:27 40.83460 -114.64740 39846 ft 412 kts 264°
2026-04-22 13:28 40.82577 -114.72176 39847 ft 411 kts 248°
2026-04-22 13:28 40.80293 -114.77633 39850 ft 412 kts 231°
2026-04-22 13:28 40.78287 -114.80360 39850 ft 414 kts 220°
2026-04-22 13:29 40.75299 -114.83526 39853 ft 417 kts 219°
2026-04-22 13:29 40.71575 -114.87480 39859 ft 403 kts 219°
2026-04-22 13:30 40.67283 -114.92028 39866 ft 393 kts 219°
2026-04-22 13:30 40.63068 -114.96482 39868 ft 384 kts 219°
2026-04-22 13:31 40.58936 -115.00840 39871 ft 377 kts 219°
2026-04-22 13:31 40.54867 -115.05124 39875 ft 373 kts 219°
2026-04-22 13:32 40.50802 -115.09396 39877 ft 376 kts 219°
2026-04-22 13:32 40.46690 -115.13710 39879 ft 382 kts 219°
2026-04-22 13:33 40.42488 -115.18113 39882 ft 390 kts 219°
2026-04-22 13:33 40.38215 -115.22586 39884 ft 396 kts 219°
2026-04-22 13:34 40.33892 -115.27099 39887 ft 402 kts 219°
2026-04-22 13:34 40.29489 -115.31686 39888 ft 406 kts 219°
2026-04-22 13:35 40.25039 -115.36321 39890 ft 410 kts 219°
2026-04-22 13:35 40.20562 -115.40968 39890 ft 412 kts 219°
2026-04-22 13:36 40.16084 -115.45610 39891 ft 414 kts 219°
2026-04-22 13:36 40.11563 -115.50290 39891 ft 415 kts 219°
2026-04-22 13:37 40.07029 -115.54979 39892 ft 416 kts 219°
2026-04-22 13:37 40.02497 -115.59649 39892 ft 416 kts 219°
2026-04-22 13:38 39.97954 -115.64326 39893 ft 414 kts 220°
2026-04-22 13:38 39.91246 -115.71216 39897 ft 409 kts 220°
2026-04-22 13:39 39.86798 -115.75777 39897 ft 410 kts 219°
2026-04-22 13:39 39.82309 -115.80372 39904 ft 411 kts 219°
2026-04-22 13:40 39.77814 -115.84965 39906 ft 411 kts 219°
2026-04-22 13:40 39.73313 -115.89556 39906 ft 411 kts 219°
2026-04-22 13:41 39.68800 -115.94153 39906 ft 412 kts 219°
2026-04-22 13:41 39.64291 -115.98735 39906 ft 411 kts 219°
2026-04-22 13:42 39.59784 -116.03309 39906 ft 411 kts 219°
2026-04-22 13:42 39.55269 -116.07882 39906 ft 411 kts 219°
2026-04-22 13:43 39.50754 -116.12449 39906 ft 411 kts 219°
2026-04-22 13:43 39.46281 -116.16963 39906 ft 409 kts 219°
2026-04-22 13:44 39.41794 -116.21486 39906 ft 408 kts 219°
2026-04-22 13:44 39.37324 -116.25984 39906 ft 407 kts 219°
2026-04-22 13:45 39.32859 -116.30470 39906 ft 406 kts 219°
2026-04-22 13:45 39.28398 -116.34944 39910 ft 405 kts 219°
2026-04-22 13:46 39.24493 -116.40117 39910 ft 403 kts 234°
2026-04-22 13:46 39.21725 -116.46401 39911 ft 403 kts 241°
2026-04-22 13:47 39.19139 -116.52807 39912 ft 402 kts 241°
2026-04-22 13:47 39.16564 -116.59157 39912 ft 402 kts 241°
2026-04-22 13:48 39.13966 -116.65540 39912 ft 401 kts 241°
2026-04-22 13:48 39.11371 -116.71900 39911 ft 401 kts 240°
2026-04-22 13:49 39.08773 -116.78251 39911 ft 401 kts 240°
2026-04-22 13:49 39.06173 -116.84598 39911 ft 400 kts 240°
2026-04-22 13:50 39.03570 -116.90936 39911 ft 400 kts 240°
2026-04-22 13:50 39.00980 -116.97229 39911 ft 400 kts 240°
2026-04-22 13:51 38.98371 -117.03557 39911 ft 400 kts 240°
2026-04-22 13:51 38.95760 -117.09877 39911 ft 400 kts 240°
2026-04-22 13:52 38.93145 -117.16193 39911 ft 400 kts 240°
2026-04-22 13:52 38.90542 -117.22468 39911 ft 400 kts 240°
2026-04-22 13:53 38.87923 -117.28768 39911 ft 400 kts 240°
2026-04-22 13:53 38.85296 -117.35074 39911 ft 400 kts 240°
2026-04-22 13:54 38.82666 -117.41374 39911 ft 401 kts 240°
2026-04-22 13:54 38.80033 -117.47669 39911 ft 401 kts 240°
2026-04-22 13:55 38.77391 -117.53973 39911 ft 401 kts 240°
2026-04-22 13:55 38.74749 -117.60263 39911 ft 401 kts 240°
2026-04-22 13:56 38.72103 -117.66552 39912 ft 401 kts 240°
2026-04-22 13:56 38.69451 -117.72842 39912 ft 401 kts 240°
2026-04-22 13:57 38.66799 -117.79119 39912 ft 401 kts 240°
2026-04-22 13:57 38.64156 -117.85360 39909 ft 401 kts 240°
2026-04-22 13:58 38.61495 -117.91634 39909 ft 401 kts 240°
2026-04-22 13:58 38.58832 -117.97899 39907 ft 401 kts 240°
2026-04-22 13:59 38.55742 -118.03798 39905 ft 401 kts 230°
2026-04-22 13:59 38.51644 -118.08647 39907 ft 402 kts 222°
2026-04-22 14:00 38.47398 -118.13309 39907 ft 403 kts 223°
2026-04-22 14:00 38.43150 -118.17967 39908 ft 403 kts 222°
2026-04-22 14:01 38.38890 -118.22626 39908 ft 403 kts 222°
2026-04-22 14:01 38.34631 -118.27274 39908 ft 403 kts 222°
2026-04-22 14:02 38.30391 -118.31892 39908 ft 403 kts 222°
2026-04-22 14:02 38.26130 -118.36524 39908 ft 403 kts 222°
2026-04-22 14:03 38.21856 -118.41164 39908 ft 403 kts 222°
2026-04-22 14:03 38.17588 -118.45790 39908 ft 403 kts 222°
2026-04-22 14:04 38.13319 -118.50410 39908 ft 403 kts 222°
2026-04-22 14:04 38.09122 -118.54940 39904 ft 386 kts 222°
2026-04-22 14:05 38.07094 -118.57127 39743 ft 382 kts 222°
2026-04-22 14:05 38.05062 -118.59318 39303 ft 385 kts 222°
2026-04-22 14:05 38.00965 -118.63735 38467 ft 392 kts 222°
2026-04-22 14:06 37.98879 -118.65981 38044 ft 394 kts 223°
2026-04-22 14:06 37.96800 -118.68215 37621 ft 389 kts 223°
2026-04-22 14:06 37.94732 -118.70434 37193 ft 386 kts 223°
2026-04-22 14:06 37.92679 -118.72637 36768 ft 387 kts 223°
2026-04-22 14:07 37.90620 -118.74848 36343 ft 387 kts 224°
2026-04-22 14:07 37.88562 -118.77054 35918 ft 388 kts 224°
2026-04-22 14:07 37.86501 -118.79261 35494 ft 388 kts 224°
2026-04-22 14:07 37.84443 -118.81463 35070 ft 388 kts 224°
2026-04-22 14:08 37.82385 -118.83664 34645 ft 387 kts 224°
2026-04-22 14:08 37.80355 -118.85832 34226 ft 386 kts 224°
2026-04-22 14:08 37.78302 -118.88024 33800 ft 385 kts 224°
2026-04-22 14:08 37.76256 -118.90206 33376 ft 385 kts 224°
2026-04-22 14:09 37.74212 -118.92385 32951 ft 384 kts 224°
2026-04-22 14:09 37.72170 -118.94560 32526 ft 383 kts 224°
2026-04-22 14:09 37.70133 -118.96728 32101 ft 382 kts 224°
2026-04-22 14:09 37.68099 -118.98894 31679 ft 382 kts 224°
2026-04-22 14:10 37.66077 -119.01049 31264 ft 380 kts 224°
2026-04-22 14:10 37.64070 -119.03175 30847 ft 380 kts 224°
2026-04-22 14:10 37.62043 -119.05313 30441 ft 379 kts 224°
2026-04-22 14:10 37.60016 -119.07449 30014 ft 378 kts 224°
2026-04-22 14:11 37.58001 -119.09577 29582 ft 378 kts 224°
2026-04-22 14:11 37.55991 -119.11709 29163 ft 377 kts 224°
2026-04-22 14:11 37.53997 -119.13832 28743 ft 378 kts 224°
2026-04-22 14:11 37.51985 -119.15961 28320 ft 378 kts 224°
2026-04-22 14:12 37.49964 -119.18102 27887 ft 379 kts 223°
2026-04-22 14:12 37.47950 -119.20245 27465 ft 380 kts 223°
2026-04-22 14:12 37.45913 -119.22389 27039 ft 382 kts 223°
2026-04-22 14:12 37.43870 -119.24540 26613 ft 384 kts 223°
2026-04-22 14:13 37.41820 -119.26699 26188 ft 385 kts 223°
2026-04-22 14:13 37.39773 -119.28856 25764 ft 381 kts 223°
2026-04-22 14:13 37.37766 -119.30964 25337 ft 371 kts 223°
2026-04-22 14:13 37.35798 -119.33030 24909 ft 365 kts 223°
2026-04-22 14:14 37.33864 -119.35060 24482 ft 360 kts 223°
2026-04-22 14:14 37.31940 -119.37080 24053 ft 357 kts 223°
2026-04-22 14:14 37.30040 -119.39074 23628 ft 355 kts 223°
2026-04-22 14:14 37.28149 -119.41058 23202 ft 354 kts 222°
2026-04-22 14:15 37.26283 -119.43014 22782 ft 353 kts 222°
2026-04-22 14:15 37.24394 -119.44993 22356 ft 353 kts 222°
2026-04-22 14:15 37.22504 -119.46971 21931 ft 354 kts 222°
2026-04-22 14:15 37.20623 -119.48938 21506 ft 344 kts 222°
2026-04-22 14:16 37.19430 -119.50181 21222 ft 329 kts 222°
2026-04-22 14:16 37.17705 -119.51976 20790 ft 314 kts 222°
2026-04-22 14:16 37.16050 -119.53701 20200 ft 307 kts 222°
2026-04-22 14:16 37.14406 -119.55396 19561 ft 304 kts 220°
2026-04-22 14:17 37.12595 -119.56765 18934 ft 305 kts 209°
2026-04-22 14:17 37.10576 -119.57607 18311 ft 307 kts 197°
2026-04-22 14:17 37.08477 -119.57851 17686 ft 301 kts 185°
2026-04-22 14:17 37.06412 -119.57498 17061 ft 300 kts 172°
2026-04-22 14:18 37.04474 -119.56594 16448 ft 300 kts 164°
2026-04-22 14:18 37.02552 -119.55623 15825 ft 297 kts 165°
2026-04-22 14:18 37.00632 -119.54686 15196 ft 296 kts 165°
2026-04-22 14:18 36.98718 -119.53761 14570 ft 295 kts 165°
2026-04-22 14:19 36.96817 -119.52842 13938 ft 287 kts 164°
2026-04-22 14:19 36.95001 -119.51957 13307 ft 275 kts 164°
2026-04-22 14:19 36.93246 -119.51101 12682 ft 266 kts 164°
2026-04-22 14:19 36.91544 -119.50272 12055 ft 259 kts 163°
2026-04-22 14:20 36.88268 -119.48680 10801 ft 247 kts 162°
2026-04-22 14:20 36.86680 -119.47910 10173 ft 243 kts 162°
2026-04-22 14:20 36.85110 -119.47150 9548 ft 241 kts 161°
2026-04-22 14:21 36.81995 -119.45633 8297 ft 239 kts 160°
2026-04-22 14:21 36.80449 -119.44873 7676 ft 238 kts 160°
2026-04-22 14:22 36.77405 -119.43392 6414 ft 235 kts 161°
2026-04-22 14:22 36.75880 -119.42650 5785 ft 234 kts 161°
2026-04-22 14:22 36.72866 -119.41186 4519 ft 232 kts 160°
2026-04-22 14:23 36.71368 -119.40468 3893 ft 230 kts 161°
2026-04-22 14:23 36.69833 -119.40061 3273 ft 226 kts 178°
2026-04-22 14:23 36.68286 -119.40276 2748 ft 220 kts 197°
2026-04-22 14:23 36.66989 -119.41038 2697 ft 196 kts 213°
2026-04-22 14:24 36.66021 -119.42097 2688 ft 176 kts 228°
2026-04-22 14:24 36.65368 -119.43304 2686 ft 162 kts 242°
2026-04-22 14:24 36.64986 -119.44578 2688 ft 153 kts 254°
2026-04-22 14:24 36.64852 -119.45855 2695 ft 147 kts 266°
2026-04-22 14:25 36.64941 -119.47146 2704 ft 153 kts 278°
2026-04-22 14:25 36.65309 -119.48423 2710 ft 161 kts 291°
2026-04-22 14:25 36.65739 -119.49734 2705 ft 165 kts 288°
2026-04-22 14:25 36.66147 -119.51088 2688 ft 170 kts 287°
2026-04-22 14:26 36.66678 -119.52472 2473 ft 185 kts 298°
2026-04-22 14:26 36.67391 -119.53833 2365 ft 189 kts 302°
2026-04-22 14:26 36.68119 -119.55122 2132 ft 168 kts 303°
2026-04-22 14:26 36.68766 -119.56241 1673 ft 153 kts 301°
2026-04-22 14:27 36.69382 -119.57300 1242 ft 144 kts 301°
2026-04-22 14:27 36.69953 -119.58306 1065 ft 152 kts 299°
2026-04-22 14:27 36.70530 -119.59412 1058 ft 153 kts 297°
2026-04-22 14:27 36.71090 -119.60543 1057 ft 156 kts 302°
2026-04-22 14:28 36.71824 -119.61547 1092 ft 157 kts 313°
2026-04-22 14:28 36.72701 -119.62563 1210 ft 186 kts 317°
2026-04-22 14:28 36.73666 -119.63640 1666 ft 185 kts 307°
2026-04-22 14:28 36.74343 -119.64854 1799 ft 161 kts 298°
2026-04-22 14:29 36.74898 -119.66003 1623 ft 149 kts 292°
2026-04-22 14:29 36.75425 -119.67124 1222 ft 154 kts 302°
2026-04-22 14:29 36.75979 -119.68243 938 ft 146 kts 293°
2026-04-22 14:29 36.76476 -119.69330 631 ft 145 kts 291°
2026-04-22 14:30 36.76917 -119.70444 339 ft 141 kts 295°
2026-04-22 14:30 36.77273 -119.71090 339 ft 47 kts 308°
2026-04-22 14:30 36.77440 -119.71310 339 ft 27 kts 300°
2026-04-22 14:30 36.77512 -119.71440 339 ft 10 kts 310°
2026-04-22 14:31 36.77555 -119.71512 339 ft 12 kts 297°
2026-04-22 14:31 36.77573 -119.71616 339 ft 13 kts 276°
2026-04-22 14:31 36.77575 -119.71641 339 ft 0 kts 275°
2026-04-22 14:32 36.77575 -119.71642 339 ft 0 kts 275°
2026-04-22 14:32 36.77576 -119.71649 339 ft 2 kts 275°
2026-04-22 14:32 36.77578 -119.71685 339 ft 6 kts 275°
2026-04-22 14:33 36.77583 -119.71750 339 ft 9 kts 276°
2026-04-22 14:33 36.77588 -119.71844 339 ft 12 kts 253°
2026-04-22 14:33 36.77525 -119.71928 339 ft 14 kts 208°
2026-04-22 14:33 36.77435 -119.71951 339 ft 13 kts 185°
2026-04-22 14:34 36.77446 -119.72019 339 ft 12 kts 313°
2026-04-22 14:34 36.77503 -119.72114 339 ft 15 kts 304°
2026-04-22 14:34 36.77567 -119.72229 339 ft 17 kts 305°
2026-04-22 14:34 36.77641 -119.72359 339 ft 19 kts 304°
2026-04-22 14:35 36.77708 -119.72483 339 ft 18 kts 303°
2026-04-22 14:35 36.77663 -119.72561 339 ft 14 kts 208°
2026-04-22 14:35 36.77569 -119.72611 339 ft 15 kts 188°
2026-04-22 14:35 36.77482 -119.72655 339 ft 0 kts 208°